Regional Weather Roundup
Issued by NWS

Home | Current Version | Previous Version | Graphics & Text | Print | Product List | Glossary On
Versions: 1 2 3 4 5 6 7 8 9 10 11 12 13 14 15 16 17 18 19 20 21 22 23 24 25 26 27 28 29 30 31 32 33 34 35 36 37 38 39 40 41 42 43 44 45 46 47 48 49 50
484
ASUS43 KLOT 260109
RWRIL

ILLINOIS REGIONAL WEATHER ROUNDUP
NATIONAL WEATHER SERVICE CHICAGO/ROMEOVILLE IL
800 PM CDT TUE JUL 25 2017

NOTE: "FAIR" INDICATES FEW OR NO CLOUDS BELOW 12,000 FEET WITH NO
SIGNIFICANT WEATHER AND/OR OBSTRUCTIONS TO VISIBILITY.

* THESE STATIONS ARE NOT UNDER NWS QUALITY CONTROL. THEY ALSO MAY NOT
  REPORT WEATHER SUCH AS PRECIPITATION OR FOG.

ILZ001-002-007-009-015-016-024-260200-
NORTHWEST ILLINOIS

CITY           SKY/WX    TMP DP  RH WIND       PRES   REMARKS
MOLINE         CLEAR     78  67  68 SE3       30.08R HX  80
STERLING*      CLEAR     74  67  78 CALM      30.11R
SAVANNA*       CLEAR     75  67  77 SE7       30.09S
$$

ILZ003-004-008-010-011-017-018-260200-
NORTH CENTRAL ILLINOIS

CITY           SKY/WX    TMP DP  RH WIND       PRES   REMARKS
ROCKFORD       CLOUDY    75  61  61 S8        30.13R
FREEPORT*      CLEAR     71  65  79 SE6       30.13R
ROCHELLE*      CLOUDY    73  64  73 SE3       30.13R
DE KALB*       CLOUDY    72  64  76 S5        30.14R
PERU*          CLEAR    N/A N/A N/A SE7       30.11S
$$

ILZ005-006-012>014-019>023-260200-
NORTHEAST ILLINOIS

CITY           SKY/WX    TMP DP  RH WIND       PRES   REMARKS
CHICAGO-OHARE  MOCLDY    75  58  55 SE10      30.12R
CHICAGO-MIDWAY MOCLDY    78  56  46 S9        30.12S
AURORA         CLEAR     73  61  65 SE6       30.13S
LANSING*       PTCLDY    74  56  53 SE7       30.13S
JOLIET*        CLEAR     75  62  62 SE3       30.12F
WAUKEGAN       PTCLDY    72  60  66 S13       30.11S
DUPAGE AIRPORT CLOUDY    73  59  61 S9        30.11S
WHEELING       MOCLDY    75  59  57 SE8       30.13S
MORRIS*        CLEAR     72  61  67 SE6       30.10F
ROMEOVILLE*    PTCLDY    72  55  56 SE7       30.13S
NORTHERLY ISL    N/A     74  59  59 SE9         N/A
$$

LMZ740>746-260200-
SOUTHERN LAKE MICHIGAN

STATION/POSITION SKY/WX   TEMP    WIND        PRES    VSBY  WAVE
                          AIR SEA DIR/SP/G                  HT/PER
                          (F)     (DEG/KT/KT) (MB)    (MI)  (FT/S)
SOUTHERN BUOY              72 71  130/ 10/ 10 1020.3          1/ 3
WILMETTE HARBOR            72 72  110/  8/ 10   N/A           2/ 3
HARRISON CRIB              76     160/ 13/ 14   N/A
BURNHAM HARBOR             74                   N/A
CALUMET HARBOR             76     140/  9/ 16 1019.5F
BURNS HARBOR               76     150/  6/ 15 1020.7F
MICHIGAN CITY              74     120/  9/ 12   N/A
MICHIGAN CITY 6N           75 75  150/ 10/ 14   N/A           1
ST. JOSEPH                 74 74  190/ 10/ 12 1019.9          1
$$

ILZ025>027-034>036-040-047-049-050-058-095>099-260200-
WEST-CENTRAL ILLINOIS

CITY           SKY/WX    TMP DP  RH WIND       PRES   REMARKS
QUINCY         CLEAR     82  70  66 SE6       30.07R HX  86
GALESBURG*     CLEAR     76  68  75 CALM      30.10R
MACOMB*        CLEAR     76  70  83 E3        30.11R
JACKSONVILLE*  LGT RAIN  79  70  72 CALM      30.08S HX  82
PITTSFIELD*    CLEAR     80  73  76 E3        30.08S HX  85
$$

ILZ028>032-037-038-041>044-048-051>054-059>061-260200-
CENTRAL ILLINOIS

CITY           SKY/WX    TMP DP  RH WIND       PRES   REMARKS
PONTIAC        CLEAR     72  68  87 E6        30.12F
BLOOMINGTON    CLEAR     75  65  70 SE7       30.12F
DECATUR        CLEAR     76  68  76 E6        30.11R
PEORIA         CLEAR     79  66  64 SE5       30.09F HX  81
LACON*         CLEAR     76  67  76 SE3       30.09R
LINCOLN*       CLEAR     78  70  76 SE6       30.09F HX  80
SPRINGFIELD    CLEAR     81  70  69 E7        30.09R HX  84
TAYLORVILLE    CLEAR     79  68  69 E6        30.09S HX  81
$$

ILZ033-039-045-046-055>057-062-063-260200-
EAST-CENTRAL ILLINOIS

CITY           SKY/WX    TMP DP  RH WIND       PRES   REMARKS
CHAMPAIGN      CLEAR     74  67  78 E6        30.11F
RANTOUL*       CLEAR     77  64  65 E5        30.12F
MATTOON        CLEAR     76  69  79 E6        30.10F
PARIS*         CLEAR     72  66  83 E5        30.13S
$$

ILZ079-100>102-260200-
SOUTHWEST ILLINOIS

CITY           SKY/WX    TMP DP  RH WIND       PRES   REMARKS
ALTON          CLEAR     81  73  78 E6        30.06F HX  85
BELLEVILLE     CLEAR     83  74  73 E6        30.07S HX  89
CAHOKIA*       CLEAR     86  71  60 E8        30.05R HX  91
SPARTA*        PTCLDY    84  74  70 E8        30.07S HX  91
$$

ILZ064>066-069>071-074>076-080>082-084>086-088>090-092>094-260200-
SOUTH-CENTRAL ILLINOIS

CITY           SKY/WX    TMP DP  RH WIND       PRES   REMARKS
CARBONDALE     MOCLDY    84  77  79 E8        30.06R HX  94
CAIRO*         CLEAR     81  78  89 E3        30.05R HX  89
EFFINGHAM*     CLEAR     78  70  76 NE5       30.10F HX  80
MARION         MOCLDY    82  73  74 E5        30.08R HX  88
MT. VERNON     CLEAR     80  71  74 E8        30.09R HX  84
CENTRALIA*     CLEAR     82  73  75 E6        30.07F HX  87
SALEM*         CLEAR     82  70  66 E5        30.09S HX  86
METROPOLIS*    MOCLDY    83  77  81 CALM      30.07R HX  91
$$

ILZ067-068-072-073-078-083-087-091-260200-
SOUTHEAST ILLINOIS

CITY           SKY/WX    TMP DP  RH WIND       PRES   REMARKS
LAWRENCEVILLE  CLEAR     78  69  73 E6        30.10F HX  80
FLORA*         CLEAR     82  70  66 E6        30.09F HX  85
FAIRFIELD*     CLEAR     79  71  75 NE5       30.09R HX  82
HARRISBURG*    MOCLDY    82  74  77 E5        30.08S HX  87
ROBINSON*      CLEAR     75  69  81 NE6       30.12F
CARMI*         PTCLDY    79  72  79 NE6       30.08S HX  82
$$

ABBREVIATIONS USED IN REMARKS
   TC - TEMPERATURE IN CELSIUS
  WCI - WIND CHILL INDEX
   HX - HEAT INDEX
  VSB - VISIBILITY
$$





USA.gov is the U.S. government's official web portal to all federal, state and local government web resources and services.